Time,TemperatureF,DewpointF,PressureIn,WindDirection,WindDirectionDegrees,WindSpeedMPH,WindSpeedGustMPH,Humidity,HourlyPrecipIn,Conditions,Clouds,dailyrainin,SoftwareType,DateUTC
2013-01-22 00:02:00,14.0,0.0,30.43,NNW,338,1.0,6.0,53,0.00,,,0.00,,2013-01-22 06:02:00,
2013-01-22 00:12:00,14.0,0.0,30.43,NNW,338,1.0,6.0,53,0.00,,,0.00,,2013-01-22 06:12:00,
2013-01-22 00:22:00,14.0,0.0,30.44,NW,309,3.0,6.0,53,0.00,,,0.00,,2013-01-22 06:22:00,
2013-01-22 00:32:00,14.0,1.0,30.44,NW,315,2.0,5.0,55,0.00,,,0.00,,2013-01-22 06:32:00,
2013-01-22 00:42:00,14.0,1.0,30.44,NW,315,2.0,5.0,55,0.00,,,0.00,,2013-01-22 06:42:00,
2013-01-22 00:53:00,14.0,1.0,30.43,NW,316,0.0,5.0,56,0.00,,,0.00,,2013-01-22 06:53:00,
2013-01-22 01:02:00,14.0,1.0,30.42,NW,311,0.0,4.0,55,0.00,,,0.00,,2013-01-22 07:02:00,
2013-01-22 01:12:00,14.0,1.0,30.42,NW,311,0.0,4.0,55,0.00,,,0.00,,2013-01-22 07:12:00,
2013-01-22 01:22:00,14.0,1.0,30.43,NW,311,0.0,2.0,56,0.00,,,0.00,,2013-01-22 07:22:00,
2013-01-22 01:32:00,14.0,2.0,30.43,NW,320,1.0,4.0,57,0.00,,,0.00,,2013-01-22 07:32:00,
2013-01-22 01:42:00,14.0,2.0,30.43,NW,320,1.0,4.0,57,0.00,,,0.00,,2013-01-22 07:42:00,
2013-01-22 01:53:00,14.0,1.0,30.43,NW,321,3.0,6.0,56,0.00,,,0.00,,2013-01-22 07:53:00,
2013-01-22 02:02:00,14.0,1.0,30.43,NW,322,3.0,8.0,56,0.00,,,0.00,,2013-01-22 08:02:00,
2013-01-22 02:12:00,14.0,1.0,30.43,NW,322,3.0,8.0,56,0.00,,,0.00,,2013-01-22 08:12:00,
2013-01-22 02:22:00,14.0,1.0,30.43,NW,319,5.0,8.0,55,0.00,,,0.00,,2013-01-22 08:22:00,
2013-01-22 02:32:00,14.0,1.0,30.43,NW,315,4.0,7.0,56,0.00,,,0.00,,2013-01-22 08:32:00,
2013-01-22 02:42:00,14.0,1.0,30.43,NW,315,4.0,7.0,56,0.00,,,0.00,,2013-01-22 08:42:00,
2013-01-22 02:52:00,14.0,1.0,30.44,North,350,3.0,7.0,56,0.00,,,0.00,,2013-01-22 08:52:00,
2013-01-22 03:02:00,13.0,0.0,30.44,NNW,333,2.0,8.0,56,0.00,,,0.00,,2013-01-22 09:02:00,
2013-01-22 03:12:00,13.0,0.0,30.44,NNW,333,2.0,8.0,56,0.00,,,0.00,,2013-01-22 09:12:00,
2013-01-22 03:22:00,13.0,0.0,30.44,NW,315,2.0,7.0,56,0.00,,,0.00,,2013-01-22 09:22:00,
2013-01-22 03:32:00,13.0,1.0,30.44,NW,314,2.0,6.0,58,0.00,,,0.00,,2013-01-22 09:32:00,
2013-01-22 03:42:00,13.0,1.0,30.44,NW,314,2.0,6.0,58,0.00,,,0.00,,2013-01-22 09:42:00,
2013-01-22 03:52:00,13.0,1.0,30.44,NW,319,2.0,5.0,57,0.00,,,0.00,,2013-01-22 09:52:00,
2013-01-22 04:02:00,13.0,1.0,30.44,NW,314,2.0,5.0,59,0.00,,,0.00,,2013-01-22 10:02:00,
2013-01-22 04:12:00,13.0,1.0,30.44,NW,314,2.0,5.0,59,0.00,,,0.00,,2013-01-22 10:12:00,
2013-01-22 04:22:00,13.0,2.0,30.44,NNW,331,1.0,3.0,60,0.00,,,0.00,,2013-01-22 10:22:00,
2013-01-22 04:32:00,13.0,2.0,30.45,NNW,331,1.0,4.0,61,0.00,,,0.00,,2013-01-22 10:32:00,
2013-01-22 04:42:00,13.0,2.0,30.45,NNW,331,1.0,4.0,61,0.00,,,0.00,,2013-01-22 10:42:00,
2013-01-22 04:52:00,13.0,2.0,30.45,NW,313,2.0,6.0,60,0.00,,,0.00,,2013-01-22 10:52:00,
2013-01-22 05:02:00,13.0,2.0,30.45,NW,326,1.0,6.0,60,0.00,,,0.00,,2013-01-22 11:02:00,
2013-01-22 05:12:00,13.0,2.0,30.45,NW,326,1.0,6.0,60,0.00,,,0.00,,2013-01-22 11:12:00,
2013-01-22 05:22:00,12.0,1.0,30.46,NW,317,2.0,7.0,61,0.00,,,0.00,,2013-01-22 11:22:00,
2013-01-22 05:33:00,13.0,2.0,30.47,NW,319,2.0,7.0,60,0.00,,,0.00,,2013-01-22 11:33:00,
2013-01-22 05:43:00,13.0,2.0,30.47,NW,319,2.0,7.0,60,0.00,,,0.00,,2013-01-22 11:43:00,
2013-01-22 05:53:00,13.0,1.0,30.47,WNW,300,0.0,5.0,59,0.00,,,0.00,,2013-01-22 11:53:00,
2013-01-22 06:03:00,12.0,0.0,30.46,NW,312,2.0,6.0,58,0.00,,,0.00,,2013-01-22 12:03:00,
2013-01-22 06:12:00,12.0,0.0,30.46,NW,312,2.0,6.0,58,0.00,,,0.00,,2013-01-22 12:12:00,
2013-01-22 06:23:00,12.0,1.0,30.47,NNW,327,0.0,5.0,60,0.00,,,0.00,,2013-01-22 12:23:00,
2013-01-22 06:33:00,12.0,1.0,30.47,NNW,327,0.0,5.0,60,0.00,,,0.00,,2013-01-22 12:33:00,
2013-01-22 06:43:00,12.0,0.0,30.46,NW,319,0.0,3.0,58,0.00,,,0.00,,2013-01-22 12:43:00,
2013-01-22 06:53:00,12.0,0.0,30.46,NNW,331,1.0,5.0,58,0.00,,,0.00,,2013-01-22 12:53:00,
2013-01-22 07:03:00,12.0,0.0,30.47,NNE,28,2.0,6.0,58,0.00,,,0.00,,2013-01-22 13:03:00,
2013-01-22 07:13:00,12.0,0.0,30.47,NNE,28,2.0,6.0,58,0.00,,,0.00,,2013-01-22 13:13:00,
2013-01-22 07:23:00,12.0,0.0,30.47,NNW,340,1.0,4.0,58,0.00,,,0.00,,2013-01-22 13:23:00,
2013-01-22 07:33:00,12.0,0.0,30.47,NNW,340,0.0,5.0,59,0.00,,,0.00,,2013-01-22 13:33:00,
2013-01-22 07:43:00,12.0,0.0,30.47,NNW,340,0.0,5.0,59,0.00,,,0.00,,2013-01-22 13:43:00,
2013-01-22 07:53:00,12.0,0.0,30.48,NNW,335,2.0,6.0,58,0.00,,,0.00,,2013-01-22 13:53:00,
2013-01-22 08:03:00,13.0,1.0,30.48,NNW,337,0.0,4.0,59,0.00,,,0.00,,2013-01-22 14:03:00,
2013-01-22 08:13:00,13.0,1.0,30.48,NNW,337,0.0,4.0,59,0.00,,,0.00,,2013-01-22 14:13:00,
2013-01-22 08:23:00,13.0,1.0,30.48,NW,320,0.0,3.0,58,0.00,,,0.00,,2013-01-22 14:23:00,
2013-01-22 08:33:00,13.0,1.0,30.49,NW,320,0.0,2.0,57,0.00,,,0.00,,2013-01-22 14:33:00,
2013-01-22 08:43:00,13.0,1.0,30.49,NW,320,0.0,2.0,57,0.00,,,0.00,,2013-01-22 14:43:00,
2013-01-22 08:54:00,13.0,1.0,30.50,WNW,298,0.0,3.0,57,0.00,,,0.00,,2013-01-22 14:54:00,
2013-01-22 09:03:00,13.0,0.0,30.50,WNW,298,0.0,2.0,56,0.00,,,0.00,,2013-01-22 15:03:00,
2013-01-22 09:13:00,13.0,0.0,30.50,WNW,298,0.0,2.0,56,0.00,,,0.00,,2013-01-22 15:13:00,
2013-01-22 09:23:00,14.0,1.0,30.51,NW,313,0.0,2.0,56,0.00,,,0.00,,2013-01-22 15:23:00,
2013-01-22 09:33:00,14.0,1.0,30.51,NW,313,0.0,2.0,56,0.00,,,0.00,,2013-01-22 15:33:00,
2013-01-22 09:43:00,14.0,1.0,30.51,NW,313,0.0,2.0,56,0.00,,,0.00,,2013-01-22 15:43:00,
2013-01-22 09:53:00,14.0,1.0,30.51,WNW,289,0.0,2.0,55,0.00,,,0.00,,2013-01-22 15:53:00,
2013-01-22 10:03:00,15.0,1.0,30.52,NW,313,0.0,4.0,53,0.00,,,0.00,,2013-01-22 16:03:00,
2013-01-22 10:13:00,15.0,1.0,30.52,NW,313,0.0,4.0,53,0.00,,,0.00,,2013-01-22 16:13:00,
2013-01-22 10:23:00,15.0,1.0,30.52,WNW,284,1.0,3.0,53,0.00,,,0.00,,2013-01-22 16:23:00,
2013-01-22 10:33:00,15.0,0.0,30.53,NW,317,0.0,2.0,51,0.00,,,0.00,,2013-01-22 16:33:00,
2013-01-22 10:43:00,15.0,0.0,30.53,NW,317,0.0,2.0,51,0.00,,,0.00,,2013-01-22 16:43:00,
2013-01-22 10:53:00,15.0,0.0,30.53,NW,317,0.0,2.0,51,0.00,,,0.00,,2013-01-22 16:53:00,
2013-01-22 11:03:00,16.0,2.0,30.53,WNW,302,1.0,4.0,53,0.00,,,0.00,,2013-01-22 17:03:00,
2013-01-22 11:13:00,16.0,2.0,30.53,WNW,302,1.0,4.0,53,0.00,,,0.00,,2013-01-22 17:13:00,
2013-01-22 11:23:00,16.0,2.0,30.53,NW,309,2.0,5.0,54,0.00,,,0.00,,2013-01-22 17:23:00,
2013-01-22 11:34:00,16.0,4.0,30.53,NW,310,2.0,5.0,58,0.00,,,0.00,,2013-01-22 17:34:00,
2013-01-22 11:43:00,16.0,4.0,30.53,NW,310,2.0,5.0,58,0.00,,,0.00,,2013-01-22 17:43:00,
2013-01-22 11:53:00,16.0,3.0,30.53,SW,234,2.0,5.0,56,0.00,,,0.00,,2013-01-22 17:53:00,
2013-01-22 12:03:00,15.0,5.0,30.52,NW,314,2.0,4.0,64,0.00,,,0.00,,2013-01-22 18:03:00,
2013-01-22 12:13:00,15.0,5.0,30.52,NW,314,2.0,4.0,64,0.00,,,0.00,,2013-01-22 18:13:00,
2013-01-22 12:23:00,15.0,7.0,30.52,NW,305,1.0,4.0,71,0.00,,,0.00,,2013-01-22 18:23:00,
2013-01-22 12:33:00,15.0,9.0,30.51,WNW,298,1.0,5.0,75,0.00,,,0.00,,2013-01-22 18:33:00,
2013-01-22 12:43:00,15.0,9.0,30.51,WNW,298,1.0,5.0,75,0.00,,,0.00,,2013-01-22 18:43:00,
2013-01-22 12:53:00,15.0,9.0,30.50,WNW,287,2.0,5.0,77,0.00,,,0.00,,2013-01-22 18:53:00,
2013-01-22 13:03:00,15.0,10.0,30.48,WNW,295,0.0,2.0,79,0.00,,,0.00,,2013-01-22 19:03:00,
2013-01-22 13:13:00,15.0,10.0,30.48,WNW,295,0.0,2.0,79,0.00,,,0.00,,2013-01-22 19:13:00,
2013-01-22 13:23:00,15.0,10.0,30.47,NW,323,2.0,4.0,80,0.00,,,0.00,,2013-01-22 19:23:00,
2013-01-22 13:33:00,15.0,10.0,30.47,NW,312,2.0,5.0,80,0.00,,,0.00,,2013-01-22 19:33:00,
2013-01-22 13:43:00,15.0,10.0,30.47,NW,312,2.0,5.0,80,0.00,,,0.00,,2013-01-22 19:43:00,
2013-01-22 13:53:00,15.0,10.0,30.46,NW,308,2.0,4.0,81,0.00,,,0.00,,2013-01-22 19:53:00,
2013-01-22 14:03:00,15.0,10.0,30.46,NW,308,2.0,4.0,81,0.00,,,0.00,,2013-01-22 20:03:00,
2013-01-22 14:13:00,15.0,10.0,30.46,NW,308,2.0,4.0,81,0.00,,,0.00,,2013-01-22 20:13:00,
2013-01-22 14:23:00,15.0,10.0,30.45,WNW,298,0.0,4.0,79,0.00,,,0.00,,2013-01-22 20:23:00,
2013-01-22 14:33:00,15.0,10.0,30.45,WNW,298,0.0,4.0,79,0.00,,,0.00,,2013-01-22 20:33:00,
2013-01-22 14:43:00,15.0,10.0,30.45,WNW,298,0.0,4.0,79,0.00,,,0.00,,2013-01-22 20:43:00,
2013-01-22 14:53:00,16.0,10.0,30.45,NW,306,0.0,1.0,78,0.00,,,0.00,,2013-01-22 20:53:00,
2013-01-22 15:03:00,16.0,10.0,30.46,NW,309,0.0,2.0,76,0.00,,,0.00,,2013-01-22 21:03:00,
2013-01-22 15:13:00,16.0,10.0,30.46,NW,309,0.0,2.0,76,0.00,,,0.00,,2013-01-22 21:13:00,
2013-01-22 15:23:00,16.0,10.0,30.46,NW,309,0.0,2.0,77,0.00,,,0.00,,2013-01-22 21:23:00,
2013-01-22 15:33:00,17.0,11.0,30.45,NW,323,1.0,3.0,78,0.00,,,0.00,,2013-01-22 21:33:00,
2013-01-22 15:43:00,17.0,11.0,30.45,NW,323,1.0,3.0,78,0.00,,,0.00,,2013-01-22 21:43:00,
2013-01-22 15:53:00,16.0,10.0,30.45,WNW,296,1.0,3.0,76,0.00,,,0.00,,2013-01-22 21:53:00,
2013-01-22 16:03:00,17.0,11.0,30.44,NW,311,0.0,1.0,77,0.00,,,0.00,,2013-01-22 22:03:00,
2013-01-22 16:13:00,17.0,11.0,30.44,NW,311,0.0,1.0,77,0.00,,,0.00,,2013-01-22 22:13:00,
2013-01-22 16:22:00,17.0,11.0,30.44,NW,311,0.0,1.0,78,0.00,,,0.00,,2013-01-22 22:22:00,
2013-01-22 16:32:00,17.0,11.0,30.44,NW,311,0.0,1.0,78,0.00,,,0.00,,2013-01-22 22:32:00,
2013-01-22 16:43:00,17.0,10.0,30.44,NW,311,0.0,1.0,75,0.00,,,0.00,,2013-01-22 22:43:00,
2013-01-22 16:53:00,17.0,10.0,30.43,NW,311,0.0,1.0,75,0.00,,,0.00,,2013-01-22 22:53:00,
2013-01-22 17:03:00,17.0,10.0,30.43,NW,311,0.0,1.0,75,0.00,,,0.00,,2013-01-22 23:03:00,
2013-01-22 17:12:00,17.0,10.0,30.43,NW,311,0.0,1.0,75,0.00,,,0.00,,2013-01-22 23:12:00,
2013-01-22 17:23:00,17.0,11.0,30.43,NW,311,0.0,1.0,76,0.00,,,0.00,,2013-01-22 23:23:00,
2013-01-22 17:33:00,17.0,10.0,30.44,NW,311,0.0,2.0,75,0.00,,,0.00,,2013-01-22 23:33:00,
2013-01-22 17:43:00,17.0,10.0,30.44,NW,311,0.0,2.0,75,0.00,,,0.00,,2013-01-22 23:43:00,
2013-01-22 17:52:00,17.0,10.0,30.44,NW,311,0.0,2.0,75,0.00,,,0.00,,2013-01-22 23:52:00,
2013-01-22 18:03:00,17.0,11.0,30.42,NW,325,0.0,1.0,76,0.00,,,0.00,,2013-01-23 00:03:00,
2013-01-22 18:12:00,17.0,11.0,30.42,NW,325,0.0,1.0,76,0.00,,,0.00,,2013-01-23 00:12:00,
2013-01-22 18:23:00,17.0,10.0,30.43,NW,325,0.0,1.0,75,0.00,,,0.00,,2013-01-23 00:23:00,
2013-01-22 18:33:00,17.0,11.0,30.42,NNW,328,0.0,2.0,77,0.00,,,0.00,,2013-01-23 00:33:00,
2013-01-22 18:43:00,17.0,11.0,30.42,NNW,328,0.0,2.0,77,0.00,,,0.00,,2013-01-23 00:43:00,
2013-01-22 18:52:00,17.0,11.0,30.43,NW,319,1.0,3.0,77,0.00,,,0.00,,2013-01-23 00:52:00,
2013-01-22 19:03:00,17.0,11.0,30.43,NNW,344,0.0,1.0,76,0.00,,,0.00,,2013-01-23 01:03:00,
2013-01-22 19:13:00,17.0,11.0,30.43,NNW,344,0.0,1.0,76,0.00,,,0.00,,2013-01-23 01:13:00,
2013-01-22 19:22:00,17.0,11.0,30.42,North,349,0.0,3.0,77,0.00,,,0.00,,2013-01-23 01:22:00,
2013-01-22 19:33:00,17.0,11.0,30.42,North,349,0.0,2.0,77,0.00,,,0.00,,2013-01-23 01:33:00,
2013-01-22 19:43:00,17.0,11.0,30.42,North,349,0.0,2.0,77,0.00,,,0.00,,2013-01-23 01:43:00,
2013-01-22 19:52:00,17.0,11.0,30.42,North,349,0.0,1.0,77,0.00,,,0.00,,2013-01-23 01:52:00,
2013-01-22 20:03:00,17.0,11.0,30.42,North,349,0.0,0.0,77,0.00,,,0.00,,2013-01-23 02:03:00,
2013-01-22 20:12:00,17.0,11.0,30.42,North,349,0.0,0.0,77,0.00,,,0.00,,2013-01-23 02:12:00,
2013-01-22 20:23:00,16.0,10.0,30.42,North,349,0.0,0.0,78,0.00,,,0.00,,2013-01-23 02:23:00,
2013-01-22 20:33:00,16.0,11.0,30.42,North,349,0.0,0.0,79,0.00,,,0.00,,2013-01-23 02:33:00,
2013-01-22 20:43:00,16.0,11.0,30.42,North,349,0.0,0.0,79,0.00,,,0.00,,2013-01-23 02:43:00,
2013-01-22 20:53:00,15.0,10.0,30.42,North,349,0.0,0.0,80,0.00,,,0.00,,2013-01-23 02:53:00,
2013-01-22 21:03:00,15.0,11.0,30.42,North,349,0.0,0.0,82,0.00,,,0.00,,2013-01-23 03:03:00,
2013-01-22 21:13:00,15.0,11.0,30.42,North,349,0.0,0.0,82,0.00,,,0.00,,2013-01-23 03:13:00,
2013-01-22 21:23:00,14.0,10.0,30.42,North,349,0.0,0.0,83,0.00,,,0.00,,2013-01-23 03:23:00,
2013-01-22 21:33:00,14.0,10.0,30.42,North,349,0.0,0.0,84,0.00,,,0.00,,2013-01-23 03:33:00,
2013-01-22 21:42:00,14.0,10.0,30.42,North,349,0.0,0.0,84,0.00,,,0.00,,2013-01-23 03:42:00,
2013-01-22 21:53:00,14.0,10.0,30.42,North,349,0.0,0.0,85,0.00,,,0.00,,2013-01-23 03:53:00,
2013-01-22 22:03:00,13.0,9.0,30.42,North,349,0.0,0.0,85,0.00,,,0.00,,2013-01-23 04:03:00,
2013-01-22 22:12:00,13.0,9.0,30.42,North,349,0.0,0.0,85,0.00,,,0.00,,2013-01-23 04:12:00,
2013-01-22 22:22:00,14.0,11.0,30.42,North,349,0.0,0.0,86,0.00,,,0.00,,2013-01-23 04:22:00,
2013-01-22 22:33:00,13.0,10.0,30.43,North,349,0.0,0.0,86,0.00,,,0.00,,2013-01-23 04:33:00,
2013-01-22 22:43:00,13.0,10.0,30.43,North,349,0.0,0.0,86,0.00,,,0.00,,2013-01-23 04:43:00,
2013-01-22 22:52:00,14.0,11.0,30.43,North,349,0.0,0.0,87,0.00,,,0.00,,2013-01-23 04:52:00,
2013-01-22 23:03:00,13.0,10.0,30.42,North,349,0.0,0.0,87,0.00,,,0.00,,2013-01-23 05:03:00,
2013-01-22 23:12:00,13.0,10.0,30.42,North,349,0.0,0.0,87,0.00,,,0.00,,2013-01-23 05:12:00,
2013-01-22 23:22:00,14.0,11.0,30.43,North,349,0.0,2.0,88,0.00,,,0.00,,2013-01-23 05:22:00,
2013-01-22 23:33:00,13.0,10.0,30.43,North,349,0.0,0.0,87,0.00,,,0.00,,2013-01-23 05:33:00,
2013-01-22 23:43:00,13.0,10.0,30.43,North,349,0.0,0.0,87,0.00,,,0.00,,2013-01-23 05:43:00,
2013-01-22 23:52:00,13.0,10.0,30.43,North,349,0.0,0.0,87,0.00,,,0.00,,2013-01-23 05:52:00,